Notices

What's New in latest Release from April 7th, 2021:

- Updated Glossary, including Speed of Maximum Gust, and Total Hourly Precipitation

- Updated national and regional climate services offices contacts and prices information

- Addition of station inventory lists for 1981-2010, 1971-2000, and 1961-1990 Normals.

Please note that as of June 10, 2021 UTC dates are available for all years 2004-present, and DBA is working on populating the remaining years (2003 to 1953).

If you haven't already, please take our survey and provide feedback about our website: https://eccc.sondage-survey.ca/f/LanguageSelection.aspx?s=442ca660-fcf1-47c0-95a9-59707d6fd709

Hourly Data Report for January 11, 2021

CARBERRY CS
MANITOBA
Current Station Operator: ECCC - MSC

49°54'20.900" N
99°21'26.800" W
383.50 m
5010547
71170
WZE

Download Data

Hourly Data (January 2021)
Hourly Data Report for January 11, 2021
TIME
LST
Temp Definition
°C
Dew Point Definition
°C
Rel Hum Definition
%
Precip. Amount Definition
mm

Wind Dir Definition
10's deg

Wind Spd Definition
km/h
Visibility Definition
km
Stn Press Definition
kPa
Hmdx Definition


Wind Chill Definition


Weather Definition


00:00 -3.4 -3.5 99 0.0 27 22   96.79   -10 LegendNANA
01:00 -4.2 -4.2 100 0.0 28 15   96.75   -10 LegendNANA
02:00 -4.4 -4.4 100 0.0 28 14   96.75   -10 LegendNANA
03:00 -4.7 -4.7 100 0.0 26 14   96.71   -10 LegendNANA
04:00 -4.7 -4.7 99 0.0 26 9   96.67   -9 LegendNANA
05:00 -5.0 -5.0 100 0.0 23 6   96.66   -8 LegendNANA
06:00 -4.8 -4.9 100 0.0 24 7   96.68   -8 LegendNANA
07:00 -4.6 -4.8 99 0.0 27 11   96.67   -9 LegendNANA
08:00 -5.9 -6.5 96 0.0 26 11   96.72   -11 LegendNANA
09:00 -6.6 -6.7 99 0.0 25 9   96.72   -11 LegendNANA
10:00 -6.2 -6.2 100 0.0 25 12   96.75   -11 LegendNANA
11:00 -5.2 -5.2 100 0.0 26 17   96.77   -11 LegendNANA
12:00 -4.4 -4.5 100 0.0 25 10   96.68   -9 LegendNANA
13:00 -4.5 -4.5 100 0.0 26 21   96.66   -11 LegendNANA
14:00 -4.3 -4.8 96 0.0 26 26   96.69   -12 LegendNANA
15:00 -3.6 -4.1 96 0.0 25 19   96.66   -10 LegendNANA
16:00 -3.8 -4.9 92 0.0 25 12   96.65   -8 LegendNANA
17:00 -4.9 -5.0 99 0.0 23 12   96.67   -10 LegendNANA
18:00 -5.4 -6.0 95 0.0 25 13   96.68   -11 LegendNANA
19:00 -5.6 -7.1 89 0.0 25 13   96.67   -11 LegendNANA
20:00 -5.7 -7.6 87 0.0 25 12   96.60   -11 LegendNANA
21:00 -5.5 -7.7 84 0.0 25 13   96.55   -11 LegendNANA
22:00 -5.5 -8.0 82 0.0 25 14   96.54   -11 LegendNANA
23:00 -5.5 -8.4 80 0.0 26 14   96.54   -11 LegendNANA

Notes on Data Quality.

Legend

  • E = Estimated
  • M = Missing
  • NA = Not Available*
  • [empty] = Indicates an unobserved value
Date modified: